Regional Weather Roundup
Issued by NWS

Home | Current Version | Previous Version | Graphics & Text | Print | Product List | Glossary On
Versions: 1 2 3 4 5 6 7 8 9 10 11 12 13 14 15 16 17 18 19 20 21 22 23 24 25 26 27 28 29 30 31 32 33 34 35 36 37 38 39 40 41 42 43 44 45 46 47 48 49 50
000
ASUS43 KBIS 301110
RWRND

NORTH DAKOTA REGIONAL WEATHER ROUNDUP
NATIONAL WEATHER SERVICE BISMARCK ND
600 AM CDT TUE AUG 30 2016

NOTE: "FAIR" INDICATES FEW OR NO CLOUDS BELOW 12,000 FEET WITH NO
SIGNIFICANT WEATHER AND/OR OBSTRUCTIONS TO VISIBILITY.


NDZ001>003-009>011-017-301200-
NORTHWEST NORTH DAKOTA

CITY           SKY/WX    TMP DP  RH WIND       PRES   REMARKS
WILLISTON      CLEAR     50  42  74 CALM      30.21S
MINOT          CLEAR     53  47  79 SW3       30.24R
MINOT AFB      CLEAR     51  45  78 NE3       30.24R
$$

NDZ018>021-031>035-040>046-301200-
SOUTHWEST NORTH DAKOTA

CITY           SKY/WX    TMP DP  RH WIND       PRES   REMARKS
BISMARCK       CLEAR     46  45  96 CALM      30.26S
DICKINSON      CLEAR     52  47  83 S13       30.23S
GARRISON         N/A     47  46  97 E3        30.24S
HETTINGER ARPT CLEAR     56  50  80 SE8       30.26S
$$

NDZ004>008-012>016-024-026-027-054-301200-
NORTHEAST NORTH DAKOTA

CITY           SKY/WX    TMP DP  RH WIND       PRES   REMARKS
GRAND FORKS    CLEAR     49  46  90 NW5       30.23S
GRND FRKS AFB  CLEAR     49  47  94 NW3       30.24S
DEVILS LAKE    CLEAR     52  49  89 CALM      30.27R
$$

NDZ022-023-025-028>030-036>039-047>053-301200-
SOUTHEAST NORTH DAKOTA

CITY           SKY/WX    TMP DP  RH WIND       PRES   REMARKS
FARGO          CLEAR     50  46  86 CALM      30.24R
JAMESTOWN      CLEAR     52  48  86 CALM      30.25S
$$





USA.gov is the U.S. government's official web portal to all federal, state and local government web resources and services.